Meteo pe oră la Dabhoi

Astăzi, 14 Aprilie, Miercuri

Timp Temperatura Precipitaţii Vânt Presiune Umiditate
00:00 +35°C° 0.1 mm 2 m/s 753 mmHg 18%
01:00 +34°C° 0.1 mm 2 m/s 753 mmHg 19%
02:00 +33°C° 0.1 mm 3 m/s 752 mmHg 20%
03:00 +33°C° 0.2 mm 3 m/s 752 mmHg 21%
04:00 +31°C° 0.2 mm 3 m/s 753 mmHg 22%
05:00 +30°C° 0 mm 2 m/s 753 mmHg 25%
06:00 +31°C° 0.1 mm 2 m/s 754 mmHg 24%
07:00 +33°C° 0.1 mm 3 m/s 754 mmHg 24%
08:00 +33°C° 0.1 mm 3 m/s 755 mmHg 23%
09:00 +35°C° 0.1 mm 3 m/s 755 mmHg 21%
10:00 +36°C° 0.1 mm 3 m/s 755 mmHg 19%
11:00 +38°C° 0.1 mm 3 m/s 755 mmHg 18%
12:00 +39°C° 0 mm 3 m/s 754 mmHg 16%
13:00 +40°C° 0 mm 3 m/s 753 mmHg 15%
14:00 +43°C° 0 mm 4 m/s 752 mmHg 13%
15:00 +42°C° 0 mm 4 m/s 752 mmHg 13%
16:00 +42°C° 0 mm 4 m/s 751 mmHg 14%
17:00 +41°C° 0 mm 4 m/s 751 mmHg 14%
18:00 +40°C° 0.2 mm 4 m/s 751 mmHg 16%
19:00 +37°C° 0.2 mm 3 m/s 752 mmHg 19%
20:00 +36°C° 0.2 mm 3 m/s 752 mmHg 21%
21:00 +35°C° 0 mm 3 m/s 752 mmHg 23%
22:00 +34°C° 0 mm 3 m/s 752 mmHg 26%
23:00 +32°C° 0 mm 2 m/s 753 mmHg 28%

Mâine, 15 Aprilie, Joi

Timp Temperatura Precipitaţii Vânt Presiune Umiditate
00:00 +33°C° 0 mm 3 m/s 752 mmHg 30%
01:00 +31°C° 0 mm 3 m/s 752 mmHg 33%
02:00 +30°C° 0 mm 3 m/s 752 mmHg 35%
03:00 +30°C° 0 mm 3 m/s 752 mmHg 37%
04:00 +29°C° 0 mm 3 m/s 752 mmHg 38%
05:00 +29°C° 0 mm 2 m/s 753 mmHg 40%
06:00 +30°C° 0 mm 2 m/s 753 mmHg 36%
07:00 +31°C° 0 mm 2 m/s 754 mmHg 33%
08:00 +32°C° 0 mm 2 m/s 755 mmHg 29%
09:00 +35°C° 0 mm 2 m/s 755 mmHg 26%
10:00 +37°C° 0 mm 2 m/s 754 mmHg 23%
11:00 +39°C° 0 mm 2 m/s 754 mmHg 20%
12:00 +40°C° 0 mm 2 m/s 753 mmHg 18%
13:00 +41°C° 0 mm 2 m/s 752 mmHg 16%
14:00 +42°C° 0 mm 2 m/s 751 mmHg 13%
15:00 +43°C° 0 mm 3 m/s 751 mmHg 13%
16:00 +43°C° 0 mm 4 m/s 750 mmHg 12%
17:00 +43°C° 0 mm 5 m/s 750 mmHg 12%
18:00 +41°C° 0 mm 5 m/s 750 mmHg 15%
19:00 +39°C° 0 mm 5 m/s 751 mmHg 18%
20:00 +36°C° 0 mm 5 m/s 751 mmHg 21%
21:00 +36°C° 0 mm 5 m/s 751 mmHg 23%
22:00 +35°C° 0 mm 5 m/s 752 mmHg 26%
23:00 +34°C° 0 mm 5 m/s 752 mmHg 28%

Poimâine, 16 Aprilie, Vineri

Timp Temperatura Precipitaţii Vânt Presiune Umiditate
00:00 +33°C° 0 mm 4 m/s 752 mmHg 30%
01:00 +33°C° 0 mm 3 m/s 752 mmHg 31%
02:00 +31°C° 0 mm 2 m/s 752 mmHg 33%
03:00 +30°C° 0 mm 2 m/s 752 mmHg 35%
04:00 +29°C° 0 mm 2 m/s 752 mmHg 37%
05:00 +29°C° 0 mm 2 m/s 753 mmHg 40%
06:00 +30°C° 0 mm 2 m/s 753 mmHg 40%
07:00 +31°C° 0 mm 2 m/s 754 mmHg 40%
08:00 +31°C° 0 mm 2 m/s 754 mmHg 40%
09:00 +35°C° 0 mm 2 m/s 754 mmHg 33%
10:00 +37°C° 0 mm 2 m/s 754 mmHg 26%
11:00 +39°C° 0 mm 3 m/s 754 mmHg 19%
12:00 +40°C° 0 mm 3 m/s 753 mmHg 17%
13:00 +43°C° 0 mm 4 m/s 752 mmHg 15%
14:00 +45°C° 0 mm 5 m/s 751 mmHg 13%
15:00 +43°C° 0 mm 5 m/s 751 mmHg 13%
16:00 +44°C° 0 mm 6 m/s 750 mmHg 13%
17:00 +43°C° 0 mm 7 m/s 750 mmHg 13%
18:00 +40°C° 0 mm 6 m/s 751 mmHg 16%
19:00 +38°C° 0 mm 6 m/s 751 mmHg 19%
20:00 +35°C° 0 mm 5 m/s 752 mmHg 22%
21:00 +34°C° 0 mm 5 m/s 752 mmHg 31%
22:00 +33°C° 0 mm 4 m/s 753 mmHg 39%
23:00 +30°C° 0 mm 4 m/s 753 mmHg 48%

17 Aprilie, Sâmbătă

Timp Temperatura Precipitaţii Vânt Presiune Umiditate
00:00 +30°C° 0 mm 4 m/s 753 mmHg 49%
01:00 +30°C° 0 mm 3 m/s 752 mmHg 50%
02:00 +30°C° 0 mm 2 m/s 752 mmHg 51%
03:00 +30°C° 0 mm 2 m/s 752 mmHg 53%
04:00 +29°C° 0 mm 1 m/s 753 mmHg 54%
05:00 +29°C° 0 mm 1 m/s 753 mmHg 56%
06:00 +30°C° 0 mm 1 m/s 753 mmHg 52%
07:00 +31°C° 0 mm 2 m/s 754 mmHg 49%
08:00 +32°C° 0 mm 2 m/s 755 mmHg 46%
09:00 +35°C° 0 mm 3 m/s 755 mmHg 38%
10:00 +37°C° 0 mm 3 m/s 754 mmHg 30%
11:00 +39°C° 0 mm 3 m/s 754 mmHg 21%
12:00 +42°C° 0 mm 3 m/s 753 mmHg 18%
13:00 +43°C° 0 mm 4 m/s 752 mmHg 15%
14:00 +44°C° 0 mm 4 m/s 752 mmHg 12%
15:00 +45°C° 0 mm 5 m/s 751 mmHg 11%
16:00 +45°C° 0 mm 5 m/s 751 mmHg 11%
17:00 +45°C° 0 mm 6 m/s 751 mmHg 10%
18:00 +42°C° 0 mm 5 m/s 751 mmHg 12%
19:00 +40°C° 0 mm 4 m/s 752 mmHg 14%
20:00 +37°C° 0 mm 3 m/s 752 mmHg 17%
21:00 +36°C° 0 mm 3 m/s 753 mmHg 28%
22:00 +34°C° 0 mm 3 m/s 753 mmHg 39%
23:00 +31°C° 0 mm 3 m/s 754 mmHg 50%

18 Aprilie, Duminică

Timp Temperatura Precipitaţii Vânt Presiune Umiditate
00:00 +31°C° 0 mm 3 m/s 754 mmHg 52%
01:00 +31°C° 0 mm 2 m/s 754 mmHg 53%
02:00 +30°C° 0 mm 2 m/s 753 mmHg 55%
03:00 +30°C° 0 mm 2 m/s 754 mmHg 53%
04:00 +30°C° 0 mm 1 m/s 754 mmHg 52%
05:00 +30°C° 0 mm 1 m/s 754 mmHg 50%
06:00 +31°C° 0 mm 1 m/s 754 mmHg 46%
07:00 +32°C° 0 mm 2 m/s 755 mmHg 42%
08:00 +35°C° 0 mm 2 m/s 755 mmHg 38%
09:00 +37°C° 0 mm 3 m/s 755 mmHg 32%
10:00 +39°C° 0 mm 3 m/s 754 mmHg 25%
11:00 +42°C° 0 mm 4 m/s 754 mmHg 19%
12:00 +43°C° 0 mm 4 m/s 753 mmHg 16%
13:00 +44°C° 0 mm 4 m/s 752 mmHg 13%
14:00 +45°C° 0 mm 4 m/s 751 mmHg 11%
15:00 +45°C° 0 mm 4 m/s 751 mmHg 10%
16:00 +45°C° 0 mm 4 m/s 751 mmHg 10%
17:00 +45°C° 0 mm 4 m/s 750 mmHg 10%
18:00 +43°C° 0 mm 4 m/s 751 mmHg 12%
19:00 +41°C° 0 mm 4 m/s 751 mmHg 14%
20:00 +38°C° 0 mm 3 m/s 751 mmHg 16%
21:00 +37°C° 0 mm 3 m/s 752 mmHg 24%
22:00 +35°C° 0 mm 3 m/s 752 mmHg 32%
23:00 +34°C° 0 mm 3 m/s 752 mmHg 41%

19 Aprilie, Luni

Timp Temperatura Precipitaţii Vânt Presiune Umiditate
00:00 +33°C° 0 mm 3 m/s 752 mmHg 42%
01:00 +31°C° 0 mm 2 m/s 752 mmHg 44%
02:00 +31°C° 0 mm 2 m/s 752 mmHg 46%
03:00 +31°C° 0 mm 2 m/s 752 mmHg 47%
04:00 +30°C° 0 mm 2 m/s 752 mmHg 48%
05:00 +30°C° 0 mm 2 m/s 752 mmHg 50%
06:00 +31°C° 0 mm 2 m/s 753 mmHg 46%
07:00 +32°C° 0 mm 2 m/s 753 mmHg 43%
08:00 +34°C° 0 mm 2 m/s 753 mmHg 40%
09:00 +36°C° 0 mm 3 m/s 753 mmHg 33%
10:00 +38°C° 0 mm 3 m/s 753 mmHg 27%
11:00 +40°C° 0 mm 3 m/s 753 mmHg 20%
12:00 +42°C° 0 mm 4 m/s 752 mmHg 17%
13:00 +44°C° 0 mm 4 m/s 751 mmHg 14%
14:00 +45°C° 0 mm 4 m/s 750 mmHg 11%
15:00 +46°C° 0 mm 5 m/s 750 mmHg 11%
16:00 +45°C° 0 mm 6 m/s 749 mmHg 11%
17:00 +45°C° 0 mm 6 m/s 749 mmHg 11%
18:00 +41°C° 0 mm 6 m/s 749 mmHg 19%
19:00 +39°C° 0 mm 6 m/s 750 mmHg 28%
20:00 +35°C° 0 mm 6 m/s 750 mmHg 36%
21:00 +34°C° 0 mm 5 m/s 751 mmHg 40%
22:00 +34°C° 0 mm 4 m/s 751 mmHg 43%
23:00 +33°C° 0 mm 4 m/s 751 mmHg 47%
Arată mai mult

Formular de consimțământ

Meteoprog și furnizorii noștri de servicii pot stoca și accesa date personale, precum cookies, identificatori de dispozitiv sau alte tehnologii similare pe dispozitivul dumneavoastră și procesa astfel de date pentru a personaliza conținutul și reclamele, dar și pentru a oferi caracteristici de social media și pentru a analiza traficul.

  • Stocarea și/sau accesarea informațiilor pe dispozitivul dumneavoastră

    Cookies, identificatori de dispozitiv sau alte informații pot fi stocate sau accesate pe dispozitiv în scopurile indicate mai sus.

  • Reclame și conținut personalizat, evaluarea reclamelor și a conținutului, informații despre audiențe și dezvoltarea produselor

    Reclamele și conținutul pot fi personalizate pe baza unui profil. Pot fi adăugate date suplimentare pentru a personaliza mai bine reclamele și conținutul. Performanța reclamelor și conținutului poate fi măsurată. Pot fi obținute informații despre utilizatorii care au văzut reclamele și conținutul. Aceste date pot fi utilizate pentru a dezvolta sau îmbunătăți experiența utilizatorilor, sistemele și software-ul.

Dând clic pe ‘Sunt de acord’, permiteți utilizarea cookie-urilor menționate, a identificatorilor de dispozitiv, balizelor web sau altor tehnologii similare. Setările pot fi modificate din browser-ul dispozitivului dumneavoastră.

În anumite scopuri, interesele legitime pot prima asupra consimțământului. Puteți citi mai multe informații în acest sens în Politica privind Confidențialitatea Datelor și Cookie.